• En Colombia
  • Lista de países
  • Para 7 días
  • Temperatura del agua
  • El tiempo en el mapa
  • Informadores
  • user-avatar
    Iniciar sesión

    Tiempo cada hora Djelfa

    Hoy, 13 Diciembre, Viernes

    Tiempo Temperatura Precipitaciones Viento Presión Humedad
    00:00 +1°C° 0 mm 14 mps 662 mmHg 75%
    01:00 +1°C° 0 mm 14 mps 662 mmHg 79%
    02:00 +1°C° 0 mm 14 mps 661 mmHg 82%
    03:00 +1°C° 0 mm 14 mps 661 mmHg 85%
    04:00 +1°C° 0 mm 15 mps 661 mmHg 88%
    05:00 +2°C° 0 mm 16 mps 661 mmHg 90%
    06:00 +2°C° 0 mm 16 mps 661 mmHg 92%
    07:00 +4°C° 0 mm 16 mps 662 mmHg 90%
    08:00 +4°C° 0 mm 16 mps 662 mmHg 88%
    09:00 +5°C° 0 mm 16 mps 662 mmHg 86%
    10:00 +5°C° 0 mm 16 mps 662 mmHg 85%
    11:00 +6°C° 0 mm 16 mps 662 mmHg 83%
    12:00 +6°C° 0 mm 17 mps 662 mmHg 82%
    13:00 +6°C° 0 mm 17 mps 662 mmHg 83%
    14:00 +6°C° 0 mm 17 mps 662 mmHg 83%
    15:00 +6°C° 0 mm 16 mps 661 mmHg 84%
    16:00 +6°C° 0 mm 16 mps 662 mmHg 84%
    17:00 +6°C° 0 mm 15 mps 662 mmHg 83%
    18:00 +6°C° 0 mm 14 mps 663 mmHg 83%
    19:00 +5°C° 0 mm 14 mps 663 mmHg 85%
    20:00 +5°C° 0 mm 14 mps 663 mmHg 88%
    21:00 +4°C° 0 mm 14 mps 663 mmHg 90%
    22:00 +4°C° 0 mm 14 mps 663 mmHg 90%
    23:00 +4°C° 0 mm 14 mps 663 mmHg 89%

    Mañana, 14 Diciembre, Sábado

    Tiempo Temperatura Precipitaciones Viento Presión Humedad
    00:00 +4°C° 0 mm 14 mps 664 mmHg 89%
    01:00 +4°C° 0 mm 12 mps 663 mmHg 90%
    02:00 +4°C° 0 mm 11 mps 663 mmHg 91%
    03:00 +5°C° 0 mm 9 mps 663 mmHg 93%
    04:00 +3°C° 0 mm 9 mps 663 mmHg 92%
    05:00 +3°C° 0 mm 9 mps 664 mmHg 91%
    06:00 +3°C° 0 mm 9 mps 664 mmHg 90%
    07:00 +5°C° 0 mm 9 mps 664 mmHg 86%
    08:00 +5°C° 0 mm 9 mps 665 mmHg 82%
    09:00 +6°C° 0 mm 9 mps 665 mmHg 79%
    10:00 +7°C° 0 mm 8 mps 665 mmHg 72%
    11:00 +10°C° 0 mm 6 mps 666 mmHg 65%
    12:00 +12°C° 0 mm 5 mps 666 mmHg 59%
    13:00 +12°C° 0 mm 4 mps 666 mmHg 56%
    14:00 +13°C° 0 mm 3 mps 665 mmHg 53%
    15:00 +14°C° 0 mm 2 mps 665 mmHg 50%
    16:00 +13°C° 0 mm 2 mps 665 mmHg 55%
    17:00 +12°C° 0 mm 2 mps 665 mmHg 61%
    18:00 +11°C° 0 mm 1 mps 665 mmHg 66%
    19:00 +10°C° 0 mm 1 mps 666 mmHg 66%
    20:00 +10°C° 0 mm 1 mps 666 mmHg 67%
    21:00 +10°C° 0 mm 1 mps 666 mmHg 67%
    22:00 +9°C° 0 mm 2 mps 666 mmHg 66%
    23:00 +9°C° 0 mm 2 mps 666 mmHg 65%

    Pasado mañana, 15 Diciembre, Domingo

    Tiempo Temperatura Precipitaciones Viento Presión Humedad
    00:00 +9°C° 0 mm 2 mps 665 mmHg 64%
    01:00 +8°C° 0 mm 2 mps 665 mmHg 66%
    02:00 +8°C° 0 mm 2 mps 665 mmHg 67%
    03:00 +7°C° 0 mm 2 mps 664 mmHg 69%
    04:00 +7°C° 0 mm 2 mps 664 mmHg 69%
    05:00 +7°C° 0 mm 2 mps 664 mmHg 69%
    06:00 +7°C° 0 mm 2 mps 664 mmHg 69%
    07:00 +8°C° 0 mm 2 mps 665 mmHg 63%
    08:00 +10°C° 0 mm 2 mps 666 mmHg 58%
    09:00 +12°C° 0 mm 2 mps 667 mmHg 52%
    10:00 +12°C° 0 mm 3 mps 667 mmHg 47%
    11:00 +13°C° 0 mm 3 mps 667 mmHg 43%
    12:00 +15°C° 0 mm 4 mps 667 mmHg 38%
    13:00 +14°C° 0 mm 4 mps 666 mmHg 38%
    14:00 +14°C° 0 mm 4 mps 666 mmHg 38%
    15:00 +14°C° 0 mm 4 mps 665 mmHg 39%
    16:00 +13°C° 0 mm 5 mps 665 mmHg 40%
    17:00 +12°C° 0 mm 5 mps 665 mmHg 41%
    18:00 +10°C° 0 mm 5 mps 665 mmHg 42%
    19:00 +9°C° 0 mm 5 mps 665 mmHg 43%
    20:00 +9°C° 0 mm 6 mps 665 mmHg 44%
    21:00 +9°C° 0 mm 6 mps 665 mmHg 45%
    22:00 +8°C° 0 mm 6 mps 665 mmHg 48%
    23:00 +8°C° 0 mm 7 mps 665 mmHg 51%

    16 Diciembre, Lunes

    Tiempo Temperatura Precipitaciones Viento Presión Humedad
    00:00 +8°C° 0 mm 7 mps 664 mmHg 54%
    01:00 +6°C° 0 mm 7 mps 664 mmHg 56%
    02:00 +7°C° 0 mm 6 mps 664 mmHg 57%
    03:00 +7°C° 0 mm 6 mps 664 mmHg 59%
    04:00 +5°C° 0 mm 6 mps 663 mmHg 61%
    05:00 +5°C° 0 mm 6 mps 663 mmHg 63%
    06:00 +5°C° 0 mm 6 mps 663 mmHg 64%
    07:00 +5°C° 0 mm 7 mps 663 mmHg 62%
    08:00 +6°C° 0 mm 7 mps 664 mmHg 60%
    09:00 +7°C° 0 mm 8 mps 664 mmHg 58%
    10:00 +7°C° 0 mm 9 mps 663 mmHg 56%
    11:00 +8°C° 0 mm 9 mps 663 mmHg 54%
    12:00 +9°C° 0 mm 10 mps 663 mmHg 52%
    13:00 +9°C° 0 mm 10 mps 662 mmHg 52%
    14:00 +9°C° 0 mm 11 mps 662 mmHg 52%
    15:00 +11°C° 0 mm 11 mps 661 mmHg 52%
    16:00 +9°C° 0 mm 11 mps 661 mmHg 54%
    17:00 +9°C° 0 mm 11 mps 661 mmHg 56%
    18:00 +8°C° 0 mm 10 mps 661 mmHg 58%
    19:00 +8°C° 0 mm 11 mps 660 mmHg 61%
    20:00 +7°C° 0 mm 11 mps 660 mmHg 64%
    21:00 +7°C° 0 mm 12 mps 660 mmHg 67%
    22:00 +6°C° 0 mm 11 mps 660 mmHg 68%
    23:00 +6°C° 0 mm 11 mps 659 mmHg 70%

    17 Diciembre, Martes

    Tiempo Temperatura Precipitaciones Viento Presión Humedad
    00:00 +5°C° 0 mm 10 mps 659 mmHg 71%
    01:00 +5°C° 0 mm 9 mps 659 mmHg 73%
    02:00 +5°C° 0 mm 9 mps 658 mmHg 74%
    03:00 +4°C° 0 mm 8 mps 658 mmHg 76%
    04:00 +4°C° 0 mm 8 mps 657 mmHg 75%
    05:00 +4°C° 0 mm 8 mps 657 mmHg 75%
    06:00 +4°C° 0 mm 7 mps 656 mmHg 75%
    07:00 +5°C° 0 mm 8 mps 656 mmHg 70%
    08:00 +6°C° 0 mm 8 mps 656 mmHg 65%
    09:00 +7°C° 0 mm 9 mps 656 mmHg 61%
    10:00 +7°C° 0 mm 10 mps 656 mmHg 57%
    11:00 +8°C° 0 mm 11 mps 655 mmHg 53%
    12:00 +9°C° 0 mm 12 mps 655 mmHg 50%
    13:00 +10°C° 0 mm 12 mps 655 mmHg 44%
    14:00 +10°C° 0 mm 12 mps 655 mmHg 39%
    15:00 +12°C° 0 mm 12 mps 655 mmHg 34%
    16:00 +8°C° 0.3 mm 11 mps 655 mmHg 48%
    17:00 +5°C° 0.3 mm 9 mps 655 mmHg 63%
    18:00 +1°C° 0.3 mm 8 mps 655 mmHg 77%
    19:00 +1°C° 0 mm 9 mps 655 mmHg 77%
    20:00 +1°C° 0 mm 9 mps 656 mmHg 77%
    21:00 +1°C° 0 mm 10 mps 657 mmHg 77%
    22:00 +1°C° 0 mm 11 mps 657 mmHg 76%
    23:00 -1°C° 0 mm 11 mps 657 mmHg 76%

    18 Diciembre, Miércoles

    Tiempo Temperatura Precipitaciones Viento Presión Humedad
    00:00 -1°C° 0 mm 12 mps 657 mmHg 76%
    01:00 -1°C° 0 mm 13 mps 657 mmHg 77%
    02:00 -1°C° 0 mm 14 mps 657 mmHg 77%
    03:00 0°C° 0 mm 15 mps 658 mmHg 78%
    04:00 -1°C° 0 mm 15 mps 658 mmHg 78%
    05:00 -1°C° 0 mm 14 mps 658 mmHg 79%
    06:00 -1°C° 0 mm 14 mps 658 mmHg 80%
    07:00 -1°C° 0 mm 14 mps 659 mmHg 78%
    08:00 -1°C° 0 mm 14 mps 659 mmHg 77%
    09:00 0°C° 0 mm 14 mps 660 mmHg 76%
    10:00 0°C° 0 mm 14 mps 660 mmHg 72%
    11:00 +1°C° 0 mm 13 mps 660 mmHg 69%
    12:00 +3°C° 0 mm 13 mps 661 mmHg 65%
    13:00 +3°C° 0 mm 13 mps 661 mmHg 64%
    14:00 +3°C° 0 mm 12 mps 661 mmHg 63%
    15:00 +3°C° 0 mm 12 mps 661 mmHg 62%
    16:00 +3°C° 0 mm 11 mps 661 mmHg 66%
    17:00 +2°C° 0 mm 10 mps 662 mmHg 71%
    18:00 +1°C° 0 mm 9 mps 662 mmHg 76%
    19:00 +1°C° 0 mm 9 mps 662 mmHg 79%
    20:00 0°C° 0 mm 9 mps 663 mmHg 81%
    21:00 0°C° 0 mm 9 mps 663 mmHg 84%
    22:00 0°C° 0 mm 9 mps 663 mmHg 81%
    23:00 -1°C° 0 mm 9 mps 663 mmHg 77%
    Mostrar más